STARLINK-1882, 46784

Orbit data source: Space-Track

STARLINK-1882, 46784 is a payload satellite owned by SpaceX/Seattle (US) in LEO that was launched on Sat, 24 Oct 2020 UTC via an FALCON 9 launch vehicle from the Air Force Eastern Test Range (AFETR). Payload-class satellites include a variety of spacecraft equipped with specific instruments for various scientific and technological missions. These include communications satellites like Starlink; space stations such as the ISS; scientific satellites like the Hubble; Earth observation satellites from companies like Planet Labs, Umbra, and HawkEye 360; GPS; miniature CubeSats for education and research; and military/defense satellites.

Loading next visibility...
Identifier
46784, 2020-074AX
Orbit
LEO
Last TLE update
6 hours ago
Origin
Manufacturer
SpaceX/Seattle
Mission
Operational Commercial Communications
Bus & Motor
STARLINK, Unknown motor
Mass
260 kg wet, ~248 kg dry
Launch date (UTC)
2020-10-24 (5 years ago)
Launch vehicle
FALCON 9
Launch site
Air Force Eastern Test Range (AFETR)
Object type
Payload
Rocket body
Debris
Shape & HBR
Box + 1 Pan, 8.86 m
Radar Cross Section
13.562 m², Large (>1 m²)

Expand to show TLE details & history

TLE from 6 hours ago
0 STARLINK-1882
1 46784U 20074AX  25181.87561646  .00000727  00000-0  67706-4 0  9998
2 46784  53.0558   2.2850 0001353  85.9550 274.1594 15.06394680258524
Epoch: 2025-06-30T21:00Z
TLE epoch observation values (Epoch: 2025-06-30T21:00:53.262Z)
Latitude
0.00002°
Longitude
127.88395°
Altitude
548.039 km
Speed
7.589 km/s
True Right ascension
00h 09m 08s
True Declination
0° 00' 00"
Sunlit
Object was in daylight at epoch
Visualization orbit readout
Latitude
17.0643°
Longitude
139.94667°
Altitude
547.089 km
Speed
7.591 km/s
Apparent Right ascension
01h 51m 50s
Apparent Declination
-10° 29' 07"
Sunlit
Object is in daylight
Visualization observer readout
Local Sidereal Time
15:06:01
Azimuth
34.298° NE
Elevation
-56.281°
Doppler factor
1
Orbital elements
Apogee altitude
548.435 km
Perigee altitude
546.561 km
Semi-major axis
6,925.635 km
Eccentricity
0.00014
Inclination
53.0558°
RAAN
2.285°
Arg. of periapsis
85.955°
True anomaly
Unknown
Mean anomaly
274.1594°
Eccentric anomaly
Unknown
Mean motion
3.76577 °/min
Orbital period
95.6 mins
BSTAR
0.000067706
Loading maneuver chart data...
Loading SW <> Apogee altitude chart data...

STARLINK-1882 Visibility forecast

Observer location: undefined°, undefined°

Span
Click to sort rows by Start time (UTC) header in descending order
Start Az.
Max El. time (UTC)
Max El. Az.
Max El.
End time (UTC)
End Az.
8 mins2025-07-01 14:41:43.632Z224.883° SW2025-07-01 14:45:43.632Z131.254° SE44.565°2025-07-01 14:49:43.632Z52.25° ENE
5 mins2025-07-01 16:23:43.632Z300.001° NW2025-07-01 16:25:43.632Z339.604° N20.893°2025-07-01 16:28:43.632Z28.667° NE
4 mins2025-07-01 19:45:43.632Z352.197° N2025-07-01 19:46:43.632Z10.53° NNE18.327°2025-07-01 19:49:43.632Z62.761° ENE
6 mins2025-07-01 21:24:43.632Z314.338° NW2025-07-01 21:27:43.632Z100.803° ESE42.54°2025-07-01 21:30:43.632Z125.482° SE
|